Time,B instrument,Bx,By,Bz,sigma B,Ion instrument,Status,Tp_par,Tp_perp,carrot,r_sun,clat,clong,earth_he_angle,n_p,vp_x,vp_y,vp_z,vth_p_par,vth_p_perp
1980-07-23 00:01:00,1,-3.96667,8.06667,5.06667,0.316228,1,1,49900.5,75034.7,1697,0.85448974,3.4537821,238.85843,106.95999,5.9015,369.197,39.0907,-18.0569,28.7019,35.1957
1980-07-23 00:03:42,1,-6.86667,4.36667,7.5,0.278887,1,1,41675.3,74953.4,1697,0.85449904,3.45364,238.83496,106.95996,5.08586,346.854,6.06281,9.56207,26.2299,35.1766
1980-07-23 00:06:24,1,-6.2,6.5,5.76667,0.188562,1,1,41124.1,75007.3,1697,0.85451287,3.4534264,238.81146,106.9599,5.80573,354.269,28.2884,-5.57823,26.0559,35.1892
1980-07-23 00:09:06,1,-6.95,6.1,5.5,0.517204,1,1,40037.8,86696.1,1697,0.85452676,3.4532127,238.78406,106.95984,5.74518,348.959,27.3537,-15.217,25.7095,37.8319
1980-07-23 00:11:48,1,-0.9,9.13333,1.76667,1.12448,1,1,74076.4,106800.0,1697,0.85453606,3.4530706,238.76057,106.95979,6.48116,374.491,47.9769,-30.8327,34.9702,41.9898
1980-07-23 00:14:30,1,-5.16667,7.86667,3.76667,0.355903,1,1,44605.7,91824.8,1697,0.85454994,3.452857,238.73708,106.95973,5.3509,358.02,40.6354,-27.1959,27.1365,38.9348
1980-07-23 00:17:12,1,-5.6,6.6,6.03333,1.62344,1,1,47021.0,81826.5,1697,0.85456383,3.4526434,238.70967,106.95967,5.78106,365.759,40.6929,-10.059,27.8615,36.754
1980-07-23 00:19:54,1,-7.7,1.5,8.43333,0.188562,1,1,39543.8,75475.4,1697,0.85457307,3.4525013,238.6862,106.95964,5.61973,344.04,-3.2906,13.395,25.5504,35.2989
1980-07-23 00:22:36,1,-7.16667,2.33333,8.7,0.210819,1,1,38654.9,76778.5,1697,0.85458696,3.4522877,238.6588,106.95958,5.50176,347.862,0.0772047,17.2665,25.2616,35.6023
1980-07-23 00:25:18,1,-7.16667,5.5,6.6,0.524934,1,1,41946.7,74816.2,1697,0.85460085,3.4520741,238.6353,106.95952,5.99765,348.429,17.6249,0.956091,26.3152,35.1444
1980-07-23 00:28:00,1,-6.8,5.66667,6.63333,0.421637,1,1,43804.5,71233.0,1697,0.85461473,3.4518604,238.6118,106.95946,5.13783,353.453,30.1971,-5.2431,26.8916,34.2924
1980-07-23 00:30:42,1,-6.2,6.36667,5.9,0.736357,1,1,54897.9,75240.0,1697,0.85462397,3.4517183,238.58443,106.95943,5.44885,343.959,24.2795,-11.5428,30.1048,35.2438
1980-07-23 00:33:24,1,-5.86667,6.5,6.7,0.359011,1,1,44276.9,96936.0,1697,0.85463786,3.4515047,238.56093,106.95937,6.1195,348.848,28.2051,-5.29954,27.0362,40.0037
1980-07-23 00:36:06,1,-6.36667,6.53333,5.46667,0.439697,1,1,39390.6,78394.3,1697,0.85465175,3.4512911,238.53743,106.9593,5.12387,347.392,28.9368,-9.22543,25.5008,35.9749
1980-07-23 00:38:48,1,-6.03333,6.56667,6.03333,0.270801,1,1,37156.6,82995.1,1697,0.85466099,3.451149,238.51004,106.95926,5.32691,351.614,32.2246,-5.16681,24.7671,37.0155
1980-07-23 00:41:30,1,-6.8,4.1,8.16667,0.426875,1,1,35936.0,103675.0,1697,0.85467488,3.4509354,238.48654,106.9592,5.95152,346.004,18.8456,10.5112,24.3569,41.3709
1980-07-23 00:44:12,1,-6.46667,3.7,8.43333,0.50111,1,1,39869.4,91502.3,1697,0.85468876,3.4507217,238.46304,106.95914,5.66346,341.668,12.1052,15.0422,25.6554,38.8664
1980-07-23 00:46:54,1,-5.8,5.86667,7.76667,0.24037,1,1,33265.3,101984.0,1697,0.854698,3.4505796,238.43567,106.95911,6.00651,351.271,29.6884,6.76148,23.4344,41.0322
1980-07-23 00:49:36,1,-5.03333,7.63333,6.16667,0.270801,1,1,53052.8,92936.2,1697,0.85471189,3.450366,238.41217,106.95905,5.95063,357.944,42.5018,-7.30124,29.5946,39.1697
1980-07-23 00:52:18,1,-7.6,3.825,7.55,0.435172,1,1,38993.5,94507.8,1697,0.85472578,3.4501524,238.38867,106.95898,5.60546,338.008,11.0772,7.61892,25.372,39.4995
1980-07-23 00:55:00,1,-8.16667,1.7,7.4,0.329983,1,1,39725.8,107184.0,1697,0.85473967,3.4499397,238.36127,106.95892,5.91139,331.852,5.14436,1.13066,25.6091,42.0652
1980-07-23 00:57:42,1,-6.86667,5.43333,6.36667,0.454606,1,1,36127.2,97390.7,1697,0.85474896,3.4497967,238.33778,106.95888,5.81983,340.845,24.9443,2.66029,24.4216,40.0974
1980-07-23 01:00:24,1,-7.5,5.03333,5.93333,0.253859,1,1,42784.6,91824.8,1697,0.85476285,3.449584,238.3143,106.95883,6.3514,334.508,19.6725,-5.20596,26.5767,38.9348
1980-07-23 01:03:06,1,-7.16667,5.7,5.4,0.385861,1,1,43765.8,88840.8,1697,0.85477668,3.4493704,238.2869,106.95877,5.50253,338.704,26.6404,-11.7643,26.8798,38.2969
1980-07-23 01:05:48,1,-5.66667,7.16667,6.03333,0.365148,1,1,44038.4,95306.2,1697,0.85478592,3.4492283,238.26341,106.95872,5.65794,351.89,39.0813,-5.94798,26.9633,39.666
1980-07-23 01:08:30,1,-5.96667,5.66667,7.63333,0.270801,1,1,43731.5,103224.0,1697,0.85479981,3.4490147,238.23601,106.95866,6.29111,356.437,21.2838,11.4783,26.8692,41.2808
1980-07-23 01:11:12,1,-4.55,9.025,4.2,0.494343,1,1,53800.7,60611.3,1697,0.85481369,3.448801,238.21251,106.9586,6.03478,363.741,37.7413,-21.1972,29.8024,31.6326
1980-07-23 01:13:54,1,-6.175,7.05,5.5,1.28817,1,1,44527.0,81340.7,1697,0.85482293,3.4486589,238.18903,106.95856,6.09973,353.154,34.1153,-6.37533,27.1125,36.6447
1980-07-23 01:16:36,1,-7.03333,3.8,9.36667,0.24037,1,1,33718.4,80510.9,1697,0.85483682,3.4484453,238.16162,106.9585,5.29169,350.483,18.1229,18.7411,23.5935,36.4574
1980-07-23 01:19:18,1,-7.76667,4.8,7.13333,0.24037,1,1,35960.8,83327.2,1697,0.85485065,3.4482317,238.13814,106.95845,5.53809,342.894,31.8869,2.40101,24.3654,37.0895
1980-07-23 01:22:00,1,-6.8,3.9,9.63333,0.329983,1,1,35674.7,81162.7,1697,0.85486454,3.4480181,238.11464,106.95839,5.81941,353.621,25.3532,17.068,24.2682,36.6046
1980-07-23 01:24:42,1,-7.03333,3.5,9.9,0.262467,1,1,41189.2,76805.8,1697,0.85487378,3.447876,238.08725,106.95834,5.56699,350.376,17.8637,19.8375,26.0765,35.6086
1980-07-23 01:27:24,1,-6.0,2.4,10.8,1.77636e-15,1,1,43383.7,87881.8,1697,0.85488766,3.4476624,238.06375,106.95828,6.26248,356.758,8.63204,27.3609,26.7622,38.0897
1980-07-23 01:30:06,1,-5.9,1.13333,11.2,0.329983,1,1,35951.8,86473.2,1697,0.85490155,3.4474497,238.04025,106.95822,5.54372,353.881,-3.65902,28.0407,24.3623,37.7832
1980-07-23 01:32:48,1,-4.86667,-0.966667,12.1,0.380058,1,1,38914.3,76031.9,1697,0.85491079,3.4473066,238.01286,106.95818,5.26785,362.132,-14.7366,33.5002,25.3462,35.4287
1980-07-23 01:35:30,1,-7.15,3.05,9.7,0.604152,1,1,38325.5,82040.3,1697,0.85492462,3.447094,237.98936,106.95811,5.73658,348.064,14.3856,20.0643,25.1537,36.802
1980-07-23 01:38:12,1,-6.775,3.2,9.8,0.248747,1,1,41117.7,93587.5,1697,0.85493851,3.4468803,237.96588,106.95807,6.30859,347.929,13.3998,15.5907,26.0539,39.3067
1980-07-23 01:40:54,1,-6.83333,2.73333,10.0333,0.454606,1,1,36022.4,84802.9,1697,0.85494775,3.4467373,237.93849,106.95802,5.59997,349.974,5.871,20.2014,24.3862,37.4165
1980-07-23 01:43:36,1,-7.56667,4.93333,7.8,0.253859,1,1,40512.8,101110.0,1697,0.85496163,3.4465246,237.91499,106.95796,6.55768,342.091,23.5434,3.91669,25.8615,40.8559
1980-07-23 01:46:18,1,-7.56667,4.2,8.06667,0.194365,1,1,32175.4,75743.0,1697,0.85497552,3.446311,237.89149,106.9579,5.8274,344.279,18.869,10.6689,23.0473,35.3614
1980-07-23 01:49:00,1,-7.33333,5.73333,7.66667,0.270801,1,1,33815.1,77661.0,1697,0.85498935,3.4460974,237.86409,106.95784,5.34334,345.337,27.5444,3.53946,23.6273,35.8063
1980-07-23 01:51:42,1,-6.0,6.23333,8.43333,0.253859,1,1,39271.6,86951.5,1697,0.85499859,3.4459553,237.84061,106.95779,6.31812,355.109,31.6637,11.8887,25.4623,37.8875
1980-07-23 01:54:24,1,-6.5,7.15,6.55,0.324037,1,1,35662.1,69951.4,1697,0.85501248,3.4457417,237.8132,106.95773,5.8866,354.593,35.2714,-5.12282,24.264,33.9826
1980-07-23 01:59:48,1,-6.775,7.225,5.925,0.534439,1,1,45801.0,83593.9,1697,0.8550356,3.4453859,237.76624,106.95764,6.77386,342.067,39.6784,-17.2555,27.4976,37.1488
1980-07-23 02:02:30,1,-4.53333,9.36667,4.43333,0.270801,1,1,50016.7,70338.4,1697,0.85504943,3.4451723,237.73883,106.95758,6.30845,356.901,51.1035,-18.1965,28.7353,34.0764
1980-07-23 02:05:12,1,-6.4,7.43333,6.5,0.457044,1,1,44974.1,76250.3,1697,0.85506332,3.4449596,237.71533,106.95752,6.26608,354.538,46.1675,-12.2008,27.2483,35.4796
1980-07-23 02:07:54,1,-5.73333,8.3,5.63333,0.253859,1,1,39190.4,76691.4,1697,0.85507256,3.4448166,237.69185,106.95747,6.11157,352.039,40.049,-3.37036,25.4359,35.5821
1980-07-23 02:10:36,1,-8.43333,5.33333,6.0,0.421637,1,1,41962.3,83016.3,1697,0.85508639,3.4446039,237.66444,106.95741,6.23579,337.965,21.9336,-9.08009,26.3201,37.0203
1980-07-23 02:13:18,1,-7.73333,5.43333,7.26667,0.282843,1,1,47330.9,78878.4,1697,0.85510027,3.4443903,237.64095,106.95735,6.91352,344.852,27.7865,-2.55573,27.9531,36.0859
1980-07-23 02:16:00,1,-7.6,5.5,7.4,1.25607e-15,1,1,41031.2,73860.7,1697,0.8551141,3.4441767,237.61745,106.95729,6.35375,343.859,29.6036,-0.365204,26.0264,34.9192
1980-07-23 02:18:42,1,-9.2,3.8,5.7,0.223607,1,1,41718.9,75541.0,1697,0.85512334,3.4440346,237.59006,106.95724,5.95478,330.919,14.1133,-18.0707,26.2437,35.3142
1980-07-23 02:21:24,-1,nan,nan,nan,nan,1,4,nan,nan,1697,0.85513717,3.443821,237.56656,106.95718,nan,nan,nan,nan,nan,nan
1980-07-23 02:24:06,1,-6.8,1.56667,10.4667,0.290593,1,1,44504.6,66429.6,1697,0.85515106,3.4436083,237.54306,106.95712,6.2025,351.98,3.73348,19.2087,27.1057,33.1161
1980-07-23 02:26:48,1,-7.16667,5.0,8.36667,0.742369,1,1,41143.5,83816.7,1697,0.8551603,3.4434652,237.51567,106.95708,6.69056,343.366,18.4434,7.54553,26.062,37.1983
1980-07-23 02:29:30,1,-7.26667,4.06667,8.93333,0.34641,1,1,40473.2,80806.2,1697,0.85517412,3.4432526,237.49217,106.95702,6.43732,347.753,15.2728,15.0799,25.8489,36.5242
1980-07-23 02:32:12,1,-7.3,4.23333,8.83333,0.333333,1,1,44336.6,77528.5,1697,0.85518795,3.4430389,237.46867,106.95695,6.72765,344.314,17.169,8.86196,27.0545,35.7757
1980-07-23 02:34:54,1,-8.2,4.03333,7.66667,0.312694,1,1,38661.7,75882.5,1697,0.85519719,3.4428968,237.4413,106.95692,6.22302,341.456,23.2955,2.80921,25.2638,35.3939
1980-07-23 02:37:36,1,-7.66667,5.56667,7.13333,0.270801,1,1,37860.3,78140.0,1697,0.85521108,3.4426832,237.4178,106.95686,6.14986,340.268,26.9689,-2.91529,25.0006,35.9166
1980-07-23 02:40:18,1,-5.73333,8.5,4.03333,0.24037,1,1,39695.7,43495.1,1697,0.85522491,3.4424696,237.3904,106.9568,5.56552,363.416,40.2307,-26.6289,25.5994,26.7965
1980-07-23 02:43:00,1,-2.45,2.525,9.325,5.02307,1,1,76108.2,66181.4,1697,0.8552388,3.442256,237.3669,106.95674,8.13517,356.081,43.2258,-34.3146,35.4465,33.0541
1980-07-23 02:45:42,1,-3.16667,3.56667,11.2,0.651494,1,1,113752.0,49983.5,1697,0.85524803,3.4421139,237.34341,106.9567,9.14565,368.674,14.5459,18.8953,43.3349,28.7258
1980-07-23 02:48:24,1,-5.9,5.4,8.43333,0.410961,1,1,100501.0,43164.6,1697,0.85526186,3.4419012,237.31601,106.95663,9.3654,360.467,25.4764,2.64908,40.7328,26.6945
1980-07-23 02:51:06,1,-5.06667,7.03333,6.6,0.290593,1,1,66436.9,47378.0,1697,0.85527569,3.4416876,237.29251,106.95657,9.2108,356.059,37.4109,-13.7531,33.1179,27.967
1980-07-23 02:53:48,1,-5.1,6.6,7.46667,0.188562,1,1,62792.7,59486.9,1697,0.85528493,3.4415455,237.26903,106.95653,10.7064,359.542,33.152,2.18279,32.1968,31.3378
1980-07-23 02:56:30,1,-5.2,9.43333,0.433333,0.473756,1,1,16978.9,26179.4,1697,0.85529882,3.4413319,237.24162,106.95647,7.80278,360.379,34.2767,2.1056,16.7422,20.7892
1980-07-23 02:59:12,1,-5.3,9.0,-0.05,0.554527,1,1,29565.0,26155.2,1697,0.85531265,3.4411182,237.21812,106.95641,7.9103,356.651,32.3114,1.2631,22.0926,20.7796
1980-07-23 03:01:54,1,-5.0,9.25,-0.1,0.421307,1,1,19479.5,26314.8,1697,0.85532188,3.4409761,237.19464,106.95636,8.20963,357.681,32.3568,6.56286,17.9328,20.8429
1980-07-23 03:04:36,1,-6.2,8.95,0.7,0.357071,1,1,24054.0,21228.2,1697,0.85533571,3.4407625,237.16724,106.9563,6.64132,357.054,27.0221,0.802989,19.9274,18.7204
1980-07-23 03:07:18,1,-4.7,9.5,-0.1,1.38778e-17,1,1,18046.6,26049.1,1697,0.85534954,3.4405499,237.14374,106.95624,7.9332,358.743,32.4423,2.21472,17.2606,20.7374
1980-07-23 03:10:00,1,3.0,6.66667,-6.06667,0.733333,1,1,32144.8,28125.1,1697,0.85536337,3.4403362,237.12024,106.95618,6.54586,377.176,22.2204,-23.3418,23.0363,21.5479
1980-07-23 03:12:42,1,2.53333,6.46667,-6.4,0.24037,1,1,36234.9,40196.8,1697,0.85537261,3.4401941,237.09285,106.95613,8.11362,375.51,28.0488,-22.1769,24.458,25.7605
1980-07-23 03:15:24,1,0.633333,8.3,-5.56667,0.253859,1,1,21201.4,24173.5,1697,0.85538644,3.4399805,237.06935,106.95607,7.97671,376.599,20.2263,-19.4747,18.7085,19.9769
1980-07-23 03:18:06,1,-0.666667,9.06667,-4.2,0.380058,1,1,29918.0,26321.5,1697,0.85540026,3.4397678,237.04585,106.95601,8.18079,375.002,26.3722,-19.8948,22.2241,20.8455
1980-07-23 03:20:48,1,-1.76667,10.7,-0.566667,0.48074,1,1,35432.2,25553.5,1697,0.8554095,3.4396257,237.01846,106.95596,8.09046,370.363,35.28,-8.63007,24.1856,20.5392
1980-07-23 03:23:30,1,-1.8,9.5,-3.23333,0.249444,1,1,18042.4,22995.2,1697,0.85542333,3.4394121,236.99496,106.9559,7.82423,368.492,30.5412,-21.6779,17.2586,19.4839
1980-07-23 03:26:12,1,-1.16667,10.2667,-2.56667,0.305505,1,1,38741.2,22377.8,1697,0.85543716,3.4391985,236.96756,106.95584,7.513,379.125,33.1873,-17.9044,25.2898,19.2206
1980-07-23 03:28:54,1,-0.0333333,10.3333,-2.2,0.380058,1,1,38008.2,27291.4,1697,0.8554464,3.4390564,236.94408,106.9558,8.12991,376.031,34.9926,-17.7165,25.0494,21.2261
1980-07-23 03:31:36,1,-2.9,9.5,-1.83333,1.68984,1,1,36872.4,20374.9,1697,0.85546023,3.4388428,236.92058,106.95573,7.6252,377.95,34.7782,-10.7296,24.6722,18.3403
1980-07-23 03:34:18,1,-2.8,8.9,-3.86667,0.188562,1,1,20739.4,24213.6,1697,0.85547411,3.4386301,236.89317,106.95567,7.9725,365.55,29.5459,-17.9009,18.5036,19.9934
1980-07-23 03:37:00,1,-3.3,8.43333,-4.4,0.298142,1,1,21991.2,27208.0,1697,0.85548794,3.4384165,236.86966,106.9556,7.7814,366.839,24.0581,-22.0884,19.0538,21.1937
1980-07-23 03:39:42,1,-3.025,8.4,-4.4,0.178536,1,1,19909.9,21648.5,1697,0.85549718,3.4382744,236.84619,106.95557,8.36255,366.733,28.7911,-18.7265,18.1298,18.9048
1980-07-23 03:42:24,1,-3.225,8.55,-4.1,0.298957,1,1,19113.7,25693.4,1697,0.85551101,3.4380608,236.81877,106.95549,7.53598,364.856,21.9355,-23.9214,17.7636,20.5953
1980-07-23 03:45:06,1,-3.9,8.4,-3.5,0.173205,1,1,21472.2,23079.7,1697,0.85552484,3.4378481,236.79527,106.95543,7.84907,360.426,28.3529,-16.7261,18.8277,19.5197
1980-07-23 03:47:48,1,-3.3,8.1,-4.4,0.0,1,1,17921.6,25345.6,1697,0.85553408,3.437706,236.7718,106.9554,7.60404,363.894,23.0633,-22.3324,17.2007,20.4555
1980-07-23 03:50:30,1,-3.03333,8.1,-4.4,0.418994,1,1,20652.2,22866.7,1697,0.8555479,3.4374924,236.74438,106.95532,7.57516,362.959,27.4375,-20.9218,18.4647,19.4294
1980-07-23 03:53:12,1,-3.1,7.93333,-4.66667,0.312694,1,1,19098.3,24155.1,1697,0.85556173,3.4372787,236.72089,106.95526,8.17607,363.042,19.3568,-25.4244,17.7564,19.9693
1980-07-23 03:55:54,1,-2.6,8.5,-4.43333,0.188562,1,1,16615.4,21523.4,1697,0.85557097,3.4371367,236.6974,106.95522,7.93956,362.349,29.772,-18.5665,16.562,18.8501
1980-07-23 03:58:36,1,-2.53333,7.46667,-5.23333,0.282843,1,1,23759.3,24855.7,1697,0.8555848,3.436924,236.67,106.95515,7.5299,364.424,21.3888,-24.1094,19.805,20.2568
1980-07-23 04:01:18,1,-4.4,9.1,-1.3,0.0,1,1,25413.0,31862.4,1697,0.85559863,3.4367104,236.6465,106.95509,7.807,354.509,33.963,-8.31133,20.4826,22.9349
1980-07-23 04:04:00,1,-6.73333,8.9,2.6,0.149071,1,1,27364.5,23264.3,1697,0.85561246,3.4364967,236.61909,106.95503,6.39309,349.744,34.1981,6.59859,21.2545,19.5976
1980-07-23 04:06:42,1,-6.3,8.9,2.5,0.173205,1,1,19350.6,25853.0,1697,0.85562164,3.4363546,236.59561,106.95499,7.49253,349.652,35.1862,5.37569,17.8733,20.6592
1980-07-23 04:09:24,1,-6.46667,8.76667,1.0,0.210819,1,1,32317.6,21337.6,1697,0.85563546,3.436142,236.57211,106.95493,6.54546,352.057,37.1249,-3.94996,23.0982,18.7686
1980-07-23 04:12:06,1,-6.36667,8.96667,1.4,0.413656,1,1,20884.7,27205.6,1697,0.85564929,3.4359283,236.54471,106.95486,6.56372,351.913,35.5921,-1.41772,18.5683,21.1927
1980-07-23 04:14:48,1,-6.16667,8.66667,5.13333,0.282843,1,1,28093.9,30358.4,1697,0.85565853,3.4357862,236.52122,106.95482,7.10495,350.589,39.8494,12.4738,21.5359,22.3871
1980-07-23 04:17:30,1,-4.56667,7.63333,7.96667,0.966092,1,1,26553.4,37651.9,1697,0.85567236,3.4355726,236.49771,106.95474,6.44479,359.615,37.606,20.7549,20.9372,24.9317
1980-07-23 04:20:12,1,-4.46667,8.23333,7.03333,0.627163,1,1,27046.9,41756.2,1697,0.85568619,3.43536,236.47031,106.95468,6.91562,352.821,42.4392,9.80906,21.1308,26.2554
1980-07-23 04:22:54,1,-5.5,8.3,1.9,2.22045e-16,1,1,31158.6,36306.1,1697,0.85569537,3.4352179,236.44682,106.95464,7.08065,350.096,37.5654,-1.64757,22.6802,24.482
1980-07-23 04:25:36,1,-4.975,8.425,0.2,0.577711,1,1,25531.5,29227.6,1697,0.8557092,3.4350042,236.42332,106.95457,6.07454,354.317,45.364,-2.1511,20.5303,21.9662
1980-07-23 04:28:18,1,-5.15,7.975,6.0,0.233184,1,1,32382.5,38259.6,1697,0.85572302,3.4347916,236.39592,106.95451,7.05301,349.84,43.1135,9.96662,23.1213,25.1321
1980-07-23 04:31:00,1,-5.83333,7.13333,6.3,0.210819,1,1,31609.2,45592.1,1697,0.85573685,3.4345779,236.37242,106.95445,6.29338,343.98,35.5823,21.9979,22.8436,27.4348
1980-07-23 04:33:42,1,-5.33333,7.2,7.1,0.169967,1,1,26044.8,35597.9,1697,0.85574603,3.4344358,236.34894,106.95441,5.97995,348.711,38.6557,24.1532,20.7357,24.2421
1980-07-23 04:36:24,1,-6.06667,7.0,6.56667,0.380058,1,1,31760.9,45021.8,1697,0.85575986,3.4342222,236.32153,106.95435,6.443,345.605,37.7941,22.1328,22.8983,27.2627
1980-07-23 04:39:06,1,-6.43333,5.6,7.76667,0.380058,1,1,29913.3,50969.6,1697,0.85577369,3.4340096,236.29802,106.95427,5.59393,344.993,34.8297,33.0554,22.2224,29.0077
1980-07-23 04:41:48,1,-4.73333,5.56667,9.73333,0.365148,1,1,34693.2,54483.2,1697,0.85578293,3.4338675,236.27454,106.95422,5.42193,364.453,34.8834,41.8374,23.9321,29.9909
1980-07-23 04:44:30,1,-6.2,4.6,9.1,0.270801,1,1,27934.6,53963.7,1697,0.85579675,3.4336538,236.24713,106.95416,5.42804,344.345,25.0357,37.7663,21.4748,29.8475
1980-07-23 04:47:12,1,-3.95,4.65,10.3,0.640312,1,1,29720.1,39583.9,1697,0.85581058,3.4334402,236.22363,106.9541,4.95431,367.605,18.8139,52.6484,22.1505,25.5633
1980-07-23 04:49:54,1,-4.25,2.35,11.0,0.7,1,1,41000.9,50918.0,1697,0.85581976,3.4332981,236.19624,106.95406,6.15205,358.695,8.96078,52.0952,26.0168,28.993
1980-07-23 04:52:36,1,-4.9,7.06667,6.36667,0.719568,1,1,41141.0,70952.0,1697,0.85583359,3.4330854,236.17274,106.95399,6.45766,352.017,35.1309,39.5716,26.0612,34.2247
1980-07-23 04:55:18,1,-5.36667,7.73333,5.9,0.733333,1,1,39564.2,62079.1,1697,0.85584742,3.4328718,236.14925,106.95393,5.96485,355.458,41.0958,36.3411,25.5569,32.0133
1980-07-23 04:58:00,1,-6.8,5.23333,7.23333,0.71492,1,1,30939.2,65876.6,1697,0.85586125,3.4326591,236.12183,106.95386,5.93466,342.712,17.2022,42.1103,22.6002,32.9779
1980-07-23 05:00:42,1,-5.03333,8.63333,3.5,0.671648,1,1,39146.5,69304.6,1697,0.85587049,3.4325171,236.09836,106.95383,6.35711,354.421,42.3118,15.8551,25.4217,33.8251
1980-07-23 05:03:24,1,-3.3,-3.475,11.675,0.754155,1,1,39225.5,66999.2,1697,0.85588425,3.4323034,236.07484,106.95375,6.38554,367.102,-34.6275,56.5525,25.4473,33.2577
1980-07-23 05:06:06,1,-2.7,-3.4,12.3,0.547723,1,1,36550.2,61741.0,1697,0.85589808,3.4320898,236.04744,106.95369,4.94391,376.434,-32.8482,58.4691,24.5642,31.926
1980-07-23 05:08:48,1,-5.7,1.0,11.0,0.324037,1,1,40731.9,65586.8,1697,0.85590726,3.4319477,236.02396,106.95364,5.83956,354.538,3.47662,55.5861,25.9313,32.9053
1980-07-23 05:11:30,1,-5.85,1.6,11.0,0.403113,1,1,35884.9,68979.7,1697,0.85592109,3.431735,236.00046,106.95358,5.70791,352.876,4.90971,57.0171,24.3396,33.7457
1980-07-23 05:14:12,1,-6.3,1.6,10.4,0.316228,1,1,42701.8,74733.1,1697,0.85593486,3.4315214,235.97304,106.95351,5.87461,348.937,3.80404,52.5364,26.551,35.1248
1980-07-23 05:16:54,1,-5.46667,-0.1,11.7,0.298142,1,1,33772.1,58861.7,1697,0.8559441,3.4313793,235.94957,106.95348,5.04898,356.585,-7.73862,58.5102,23.6122,31.1727
1980-07-23 05:19:36,1,-6.8,1.16667,10.5,0.834,1,1,37860.3,61432.4,1697,0.85595787,3.4311666,235.92606,106.9534,5.41729,344.022,0.77995,46.7112,25.0006,31.8461
1980-07-23 05:22:18,1,-6.46667,2.46667,10.3333,0.2,1,1,38629.1,64116.0,1697,0.85597169,3.430953,235.89865,106.95334,5.79018,350.813,9.31961,49.4784,25.2531,32.5343
1980-07-23 05:25:00,1,-5.53333,5.63333,9.8,0.444722,1,1,34077.1,65205.1,1697,0.85598546,3.4307404,235.87515,106.95328,5.66474,355.275,19.1022,51.0688,23.7186,32.8094
1980-07-23 05:27:42,1,-5.8,6.06667,8.83333,0.266667,1,1,30516.0,64830.3,1697,0.8559947,3.4305983,235.85167,106.95323,5.74812,353.746,29.3035,41.2198,22.4451,32.715
1980-07-23 05:30:24,1,-5.425,6.525,8.4,0.467707,1,1,32926.0,64283.8,1697,0.85600853,3.4303846,235.82426,106.95317,6.06445,350.391,27.1577,45.4911,23.3146,32.5768
1980-07-23 05:33:06,1,-5.825,7.275,6.9,0.372492,1,1,33416.1,68760.4,1697,0.8560223,3.430172,235.80075,106.95309,6.50561,348.425,38.0602,30.5444,23.4875,33.692
1980-07-23 05:35:48,1,-7.2,3.7,8.3,0.254951,1,1,36300.9,74201.9,1697,0.85603154,3.4300289,235.77336,106.95305,5.76727,339.386,12.8256,44.2448,24.4803,34.9998
1980-07-23 05:38:30,1,-6.13333,5.56667,7.9,1.00222,1,1,44665.4,78205.0,1697,0.85604531,3.4298162,235.74986,106.95299,6.1314,350.572,41.8291,28.7896,27.1546,35.9315
1980-07-23 05:41:12,1,-6.03333,8.33333,2.63333,0.848528,1,1,46842.0,73515.3,1697,0.85605913,3.4296026,235.72636,106.95293,6.19394,348.117,32.325,30.2989,27.8084,34.8375
1980-07-23 05:43:54,1,-5.63333,8.8,2.8,0.418994,1,1,34230.3,64507.9,1697,0.85606831,3.4294605,235.69897,106.95288,5.91162,353.368,35.4118,13.5403,23.7719,32.6335
1980-07-23 05:46:36,1,-4.76667,9.33333,3.1,0.210819,1,1,35150.6,70208.9,1697,0.85608214,3.4292479,235.67548,106.95282,6.2157,357.69,37.9642,25.4639,24.0893,34.045
1980-07-23 05:49:18,1,-6.6,7.93333,3.13333,0.24037,1,1,32185.3,66288.0,1697,0.85609591,3.4290342,235.65196,106.95274,5.705,348.663,31.5027,30.2317,23.0508,33.0808
1980-07-23 05:52:00,1,-6.26667,8.4,3.66667,0.352767,1,1,37908.6,65644.5,1697,0.85610974,3.4288216,235.62456,106.95268,5.7669,348.295,31.5421,23.5339,25.0165,32.9198
1980-07-23 05:54:42,1,-6.75,7.9,3.6,0.206155,1,1,37368.0,69774.5,1697,0.85611892,3.4286795,235.60107,106.95264,5.91599,346.032,30.7525,19.0587,24.8375,33.9396
1980-07-23 05:57:24,1,-7.2,7.23333,3.8,0.149071,1,1,32140.0,56470.5,1697,0.85613275,3.4284658,235.57758,106.95258,4.97267,342.697,26.1442,29.6191,23.0346,30.5329
1980-07-23 06:00:06,1,-5.5,8.83333,2.43333,0.253859,1,1,30166.9,68421.8,1697,0.85614657,3.4282532,235.55017,106.95251,6.82382,350.974,34.4559,13.4576,22.3164,33.609
1980-07-23 06:02:48,1,-5.43333,8.83333,1.5,0.38873,1,1,35970.6,61521.5,1697,0.85615575,3.4281111,235.52669,106.95247,5.62694,350.036,36.5958,11.6538,24.3687,31.8692
1980-07-23 06:05:30,1,-6.46667,7.96667,2.86667,0.416333,1,1,28129.9,60749.7,1697,0.85616952,3.4278975,235.50317,106.95239,5.39896,347.569,32.5314,22.0173,21.5497,31.6687
1980-07-23 06:08:12,1,-6.53333,7.7,3.93333,0.459468,1,1,30736.5,58887.6,1697,0.85618335,3.4276848,235.47577,106.95233,5.4369,341.645,23.8649,32.4756,22.5261,31.1796
1980-07-23 06:10:54,1,-6.0,7.56667,5.1,0.298142,1,1,38119.8,66868.8,1697,0.85619253,3.4275427,235.45229,106.95229,5.98159,349.485,29.0181,32.5532,25.0861,33.2254
1980-07-23 06:13:36,1,-5.0,8.65,1.3,0.772981,1,1,36458.7,48738.7,1697,0.8562063,3.4273291,235.42879,106.95222,4.68251,347.614,37.9745,17.8476,24.5335,28.3658
1980-07-23 06:16:18,1,-2.56667,9.56667,-0.666667,0.416333,1,1,32031.3,51770.4,1697,0.85622013,3.4271164,235.40137,106.95215,4.88558,363.566,37.3524,-0.609609,22.9956,29.2347
1980-07-23 06:19:00,1,-2.96667,9.4,-0.8,0.669992,1,1,46282.1,53299.7,1697,0.85623389,3.4269028,235.37787,106.95209,5.11948,374.081,42.296,-4.38521,27.6417,29.6634
1980-07-23 06:21:42,1,-3.16667,9.6,-0.533333,0.5696,1,1,30789.6,63366.1,1697,0.85624307,3.4267607,235.35048,106.95204,5.39562,359.819,37.7399,2.8508,22.5455,32.3435
1980-07-23 06:24:24,1,-2.83333,9.5,-0.266667,0.194365,1,1,43562.1,57242.1,1697,0.8562569,3.426548,235.32698,106.95198,5.69793,364.053,38.2101,-4.86531,26.8171,30.7408
1980-07-23 06:27:06,1,-3.2,9.76667,0.4,0.359011,1,1,29815.6,55590.7,1697,0.85627067,3.4263353,235.30347,106.9519,4.46461,362.909,36.4407,4.9775,22.186,30.2942
1980-07-23 06:29:48,1,-2.3,9.66667,-1.43333,0.290593,1,1,45183.5,54420.8,1697,0.85627985,3.4261923,235.27609,106.95187,5.229,365.941,35.2504,-14.1785,27.3116,29.9737
1980-07-23 06:32:30,1,-1.63333,9.8,-1.36667,0.253859,1,1,26808.2,67604.4,1697,0.85629368,3.4259796,235.25258,106.9518,5.62902,370.118,36.8432,-11.1728,21.0374,33.4076